Seleccionar fecha


miércoles, 15 noviembre, 2017

Fecha Temperaturas Humedad relativa Presión atmosférica Precipitaciones Dirección viento Velocidad del viento Velocidad de racha Iluminancia
11:57 PM9,3 ºC89 %959 hPa0,00 l/m2 180º S 0,00 m/s0,00 m/s2.3 Lux
11:47 PM9,5 ºC87 %959 hPa0,00 l/m2 225º SO 0,00 m/s0,00 m/s2.3 Lux
11:37 PM10,1 ºC87 %959 hPa0,00 l/m2 0º N 0,00 m/s0,00 m/s2.3 Lux
11:27 PM10,3 ºC84 %959 hPa0,00 l/m2 247,5º OSO 0,00 m/s0,00 m/s2.3 Lux
11:17 PM10,1 ºC84 %959 hPa0,00 l/m2 247,5º OSO 0,00 m/s0,00 m/s2.3 Lux
11:07 PM10,2 ºC85 %959 hPa0,00 l/m2 202,5º SSO 0,00 m/s0,00 m/s2.3 Lux
10:57 PM10,4 ºC85 %959 hPa0,00 l/m2 180º S 0,20 m/s0,00 m/s2.3 Lux
10:47 PM10,2 ºC84 %959 hPa0,00 l/m2 180º S 0,10 m/s0,60 m/s2.3 Lux
10:37 PM10,8 ºC80 %959 hPa0,00 l/m2 180º S 0,60 m/s0,60 m/s2.3 Lux
10:27 PM9,9 ºC80 %959 hPa0,00 l/m2 180º S 1,00 m/s1,20 m/s2.3 Lux
10:17 PM10,9 ºC81 %959 hPa0,00 l/m2 112.5º ESE 1,00 m/s1,20 m/s2.3 Lux
10:07 PM11,0 ºC79 %959 hPa0,00 l/m2 180º S 1,40 m/s1,20 m/s2.3 Lux
09:57 PM10,3 ºC80 %959 hPa0,00 l/m2 180º S 1,00 m/s1,20 m/s2.3 Lux
09:47 PM10,3 ºC82 %959 hPa0,00 l/m2 157,5º SSE 0,80 m/s1,20 m/s2.3 Lux
09:37 PM11,3 ºC82 %959 hPa0,00 l/m2 157,5º SSE 1,00 m/s1,20 m/s2.3 Lux
09:27 PM10,7 ºC82 %959 hPa0,00 l/m2 180º S 0,80 m/s1,20 m/s2.3 Lux
09:17 PM11,7 ºC83 %959 hPa0,00 l/m2 180º S 0,10 m/s0,00 m/s2.3 Lux
09:07 PM11,9 ºC82 %959 hPa0,00 l/m2 180º S 0,00 m/s0,00 m/s2.4 Lux
08:57 PM11,4 ºC79 %959 hPa0,00 l/m2 180º S 0,20 m/s0,60 m/s2.4 Lux
08:47 PM12,2 ºC81 %959 hPa0,00 l/m2 180º S 0,40 m/s0,60 m/s2.4 Lux
08:37 PM12,3 ºC81 %959 hPa0,00 l/m2 0º N 0,10 m/s0,00 m/s2.4 Lux
08:27 PM11,7 ºC81 %959 hPa0,00 l/m2 112.5º ESE 0,60 m/s0,60 m/s2.4 Lux
08:17 PM12,3 ºC80 %959 hPa0,00 l/m2 180º S 0,10 m/s0,00 m/s2.4 Lux
08:07 PM12,7 ºC79 %959 hPa0,00 l/m2 157,5º SSE 0,10 m/s0,00 m/s2.4 Lux
07:57 PM12,8 ºC77 %958 hPa0,00 l/m2 180º S 0,10 m/s0,00 m/s2.4 Lux
07:47 PM12,2 ºC74 %959 hPa0,00 l/m2 180º S 0,40 m/s0,60 m/s2.3 Lux
07:37 PM13,1 ºC73 %958 hPa0,00 l/m2 180º S 0,10 m/s0,60 m/s2.3 Lux
07:27 PM13,2 ºC73 %958 hPa0,00 l/m2 180º S 0,90 m/s1,20 m/s2.4 Lux
07:17 PM13,5 ºC71 %958 hPa0,00 l/m2 180º S 0,40 m/s0,60 m/s2.4 Lux
07:07 PM13,6 ºC70 %958 hPa0,00 l/m2 180º S 0,70 m/s0,60 m/s2.4 Lux
06:57 PM12,8 ºC74 %958 hPa0,00 l/m2 247,5º OSO 0,70 m/s1,20 m/s2.4 Lux
06:47 PM13,8 ºC73 %958 hPa0,00 l/m2 157,5º SSE 0,40 m/s1,20 m/s2.4 Lux
06:37 PM14,4 ºC73 %958 hPa0,00 l/m2 180º S 0,50 m/s0,60 m/s2.5 Lux
06:27 PM14,7 ºC73 %958 hPa0,00 l/m2 0º N 0,10 m/s0,00 m/s3.6 Lux
06:17 PM15,1 ºC72 %958 hPa0,00 l/m2 112.5º ESE 0,10 m/s0,00 m/s12.1 Lux
06:07 PM14,1 ºC71 %958 hPa0,00 l/m2 202,5º SSO 0,20 m/s1,20 m/s52.7 Lux
05:57 PM16,7 ºC72 %958 hPa0,00 l/m2 180º S 0,00 m/s0,00 m/s166.2 Lux
05:47 PM16,7 ºC71 %958 hPa0,00 l/m2 157,5º SSE 0,00 m/s0,00 m/s1308.8 Lux
05:37 PM17,5 ºC70 %958 hPa0,00 l/m2 247,5º OSO 0,10 m/s0,00 m/s2094.2 Lux
05:27 PM17,6 ºC70 %958 hPa0,00 l/m2 247,5º OSO 0,60 m/s0,60 m/s2554.9 Lux
05:17 PM18,0 ºC69 %958 hPa0,00 l/m2 180º S 0,80 m/s1,20 m/s3368.1 Lux
05:07 PM17,7 ºC69 %958 hPa0,00 l/m2 180º S 0,40 m/s1,20 m/s3800.8 Lux
04:57 PM18,3 ºC66 %957 hPa0,00 l/m2 180º S 0,30 m/s0,60 m/s4616.8 Lux
04:47 PM19,4 ºC65 %957 hPa0,00 l/m2 225º SO 0,90 m/s1,80 m/s4945.6 Lux
04:37 PM19,0 ºC64 %957 hPa0,00 l/m2 0º N 0,20 m/s0,60 m/s5713.1 Lux
04:27 PM20,0 ºC62 %957 hPa0,00 l/m2 180º S 0,00 m/s0,00 m/s5713.1 Lux
04:17 PM19,1 ºC62 %957 hPa0,00 l/m2 0º N 0,10 m/s0,60 m/s6162.9 Lux
04:07 PM18,4 ºC64 %957 hPa0,00 l/m2 225º SO 0,10 m/s0,60 m/s6665.8 Lux
03:57 PM19,0 ºC64 %957 hPa0,00 l/m2 180º S 0,40 m/s0,60 m/s7230.4 Lux
03:47 PM18,0 ºC69 %957 hPa0,00 l/m2 202,5º SSO 0,30 m/s0,60 m/s7866.8 Lux
03:37 PM19,8 ºC64 %957 hPa0,00 l/m2 247,5º OSO 0,10 m/s1,20 m/s7866.8 Lux
03:27 PM18,8 ºC66 %957 hPa0,00 l/m2 0º N 0,00 m/s0,00 m/s7866.8 Lux
03:17 PM19,4 ºC67 %957 hPa0,00 l/m2 247,5º OSO 0,20 m/s0,60 m/s7866.8 Lux
03:07 PM18,5 ºC65 %957 hPa0,00 l/m2 225º SO 0,20 m/s1,20 m/s7866.8 Lux
02:46 PM19,8 ºC63 %958 hPa0,00 l/m2 270º O 0,30 m/s1,20 m/s7230.4 Lux
02:36 PM19,0 ºC62 %958 hPa0,00 l/m2 225º SO 0,40 m/s1,20 m/s7230.4 Lux
02:26 PM18,4 ºC63 %958 hPa0,00 l/m2 225º SO 0,20 m/s0,60 m/s7230.4 Lux
02:16 PM18,0 ºC64 %958 hPa0,00 l/m2 0º N 0,10 m/s0,00 m/s7230.4 Lux
02:06 PM17,9 ºC63 %958 hPa0,00 l/m2 0º N 0,10 m/s0,00 m/s6665.8 Lux
01:56 PM18,1 ºC63 %958 hPa0,00 l/m2 270º O 0,20 m/s0,60 m/s6162.9 Lux
01:46 PM18,3 ºC68 %958 hPa0,00 l/m2 225º SO 0,20 m/s1,20 m/s5713.1 Lux
01:36 PM18,4 ºC67 %958 hPa0,00 l/m2 225º SO 0,20 m/s0,60 m/s4945.6 Lux
01:26 PM17,3 ºC68 %959 hPa0,00 l/m2 0º N 0,00 m/s0,00 m/s4616.8 Lux
01:16 PM15,6 ºC68 %959 hPa0,00 l/m2 247,5º OSO 0,50 m/s1,20 m/s4047.8 Lux
01:06 PM17,3 ºC65 %959 hPa0,00 l/m2 67,5º ENE 0,40 m/s1,20 m/s3800.8 Lux
12:56 PM16,9 ºC66 %959 hPa0,00 l/m2 247,5º OSO 0,50 m/s1,20 m/s3800.8 Lux
12:46 PM15,6 ºC62 %959 hPa0,00 l/m2 225º SO 0,50 m/s1,20 m/s3575 Lux
12:36 PM15,1 ºC63 %959 hPa0,00 l/m2 180º S 0,50 m/s1,20 m/s3003.2 Lux
12:26 PM15,9 ºC63 %959 hPa0,00 l/m2 225º SO 0,30 m/s1,20 m/s2692.9 Lux
12:16 PM15,9 ºC72 %959 hPa0,00 l/m2 180º S 0,50 m/s0,60 m/s2197.4 Lux
12:06 PM15,9 ºC72 %960 hPa0,00 l/m2 270º O 0,70 m/s1,20 m/s2197.4 Lux
11:56 AM16,0 ºC66 %960 hPa0,00 l/m2 180º S 0,70 m/s1,80 m/s2197.4 Lux
11:46 AM15,3 ºC65 %960 hPa0,00 l/m2 0º N 0,30 m/s1,20 m/s2426.9 Lux
11:36 AM14,7 ºC65 %960 hPa0,00 l/m2 0º N 0,20 m/s0,60 m/s2554.9 Lux
11:26 AM14,9 ºC73 %960 hPa0,00 l/m2 270º O 0,10 m/s0,00 m/s3003.2 Lux
11:16 AM15,3 ºC73 %960 hPa0,00 l/m2 225º SO 0,40 m/s1,20 m/s3003.2 Lux
10:56 AM13,8 ºC79 %959 hPa0,00 l/m2 112.5º ESE 0,10 m/s0,60 m/s6665.8 Lux
10:46 AM12,8 ºC77 %959 hPa0,00 l/m2 0º N 0,00 m/s0,00 m/s7230.4 Lux
10:36 AM11,7 ºC82 %959 hPa0,00 l/m2 315º NO 0,10 m/s0,00 m/s7866.8 Lux
10:26 AM11,8 ºC84 %959 hPa0,00 l/m2 0º N 0,00 m/s0,00 m/s7866.8 Lux
10:16 AM12,3 ºC86 %959 hPa0,00 l/m2 0º N 0,00 m/s0,00 m/s7866.8 Lux
10:06 AM10,3 ºC86 %959 hPa0,00 l/m2 0º N 0,00 m/s0,00 m/s7866.8 Lux
09:56 AM10,0 ºC86 %959 hPa0,00 l/m2 315º NO 0,00 m/s0,00 m/s7230.4 Lux
09:46 AM10,3 ºC85 %958 hPa0,00 l/m2 0º N 0,20 m/s1,20 m/s6665.8 Lux
09:36 AM13,9 ºC85 %959 hPa0,00 l/m2 0º N 0,20 m/s0,60 m/s6162.9 Lux
09:26 AM13,1 ºC86 %959 hPa0,00 l/m2 0º N 0,00 m/s0,00 m/s5309.4 Lux
09:16 AM11,3 ºC86 %959 hPa0,00 l/m2 0º N 0,00 m/s0,00 m/s4945.6 Lux
09:06 AM10,4 ºC89 %958 hPa0,00 l/m2 0º N 0,00 m/s0,00 m/s4047.8 Lux
08:56 AM11,3 ºC89 %959 hPa0,00 l/m2 0º N 0,00 m/s0,00 m/s3800.8 Lux
08:46 AM9,2 ºC82 %959 hPa0,00 l/m2 225º SO 0,00 m/s0,00 m/s3178.1 Lux
08:36 AM8,8 ºC92 %959 hPa0,00 l/m2 315º NO 0,00 m/s0,00 m/s2426.9 Lux
08:26 AM8,2 ºC90 %959 hPa0,00 l/m2 0º N 0,00 m/s0,00 m/s1670.6 Lux
08:16 AM8,2 ºC91 %959 hPa0,00 l/m2 315º NO 0,00 m/s0,00 m/s272.7 Lux
08:06 AM7,5 ºC92 %959 hPa0,00 l/m2 0º N 0,00 m/s0,00 m/s139.3 Lux
07:56 AM8,4 ºC89 %959 hPa0,00 l/m2 0º N 0,30 m/s1,20 m/s55.7 Lux
07:46 AM9,4 ºC90 %959 hPa0,00 l/m2 0º N 0,00 m/s0,00 m/s14.8 Lux
07:36 AM9,7 ºC90 %959 hPa0,00 l/m2 0º N 0,00 m/s0,00 m/s4 Lux
07:26 AM9,4 ºC88 %959 hPa0,00 l/m2 0º N 0,00 m/s0,00 m/s2.5 Lux
07:16 AM7,8 ºC91 %959 hPa0,00 l/m2 180º S 0,00 m/s0,00 m/s2.3 Lux
07:06 AM9,5 ºC89 %959 hPa0,00 l/m2 315º NO 0,00 m/s0,00 m/s2.3 Lux
06:56 AM9,1 ºC88 %958 hPa0,00 l/m2 0º N 0,00 m/s0,00 m/s2.3 Lux
06:46 AM9,5 ºC88 %959 hPa0,00 l/m2 0º N 0,00 m/s0,00 m/s2.3 Lux
06:36 AM9,9 ºC88 %959 hPa0,00 l/m2 315º NO 0,00 m/s0,00 m/s2.3 Lux
06:26 AM8,6 ºC86 %959 hPa0,00 l/m2 247,5º OSO 0,00 m/s0,00 m/s2.3 Lux
06:16 AM9,9 ºC86 %959 hPa0,00 l/m2 0º N 0,00 m/s0,00 m/s2.3 Lux
06:06 AM9,9 ºC90 %959 hPa0,00 l/m2 270º O 0,00 m/s0,00 m/s2.3 Lux
05:56 AM9,1 ºC90 %958 hPa0,00 l/m2 247,5º OSO 0,00 m/s0,00 m/s2.3 Lux
05:46 AM9,2 ºC90 %958 hPa0,00 l/m2 90º E 0,00 m/s0,00 m/s2.3 Lux
05:36 AM10,3 ºC90 %958 hPa0,00 l/m2 0º N 0,10 m/s0,00 m/s2.3 Lux
05:26 AM9,2 ºC92 %958 hPa0,00 l/m2 315º NO 0,00 m/s0,00 m/s2.3 Lux
05:16 AM9,2 ºC91 %958 hPa0,00 l/m2 270º O 0,00 m/s0,00 m/s2.3 Lux
05:06 AM8,3 ºC93 %958 hPa0,00 l/m2 180º S 0,00 m/s0,00 m/s2.3 Lux
04:56 AM9,0 ºC94 %958 hPa0,00 l/m2 315º NO 0,00 m/s0,00 m/s2.3 Lux
04:46 AM10,0 ºC94 %958 hPa0,00 l/m2 0º N 0,20 m/s0,60 m/s2.3 Lux
04:36 AM9,9 ºC94 %958 hPa0,00 l/m2 0º N 0,20 m/s1,20 m/s2.3 Lux
04:26 AM8,6 ºC94 %958 hPa0,00 l/m2 270º O 0,00 m/s0,00 m/s2.3 Lux
04:16 AM8,9 ºC94 %958 hPa0,00 l/m2 0º N 0,00 m/s0,00 m/s2.3 Lux
04:06 AM8,5 ºC94 %959 hPa0,00 l/m2 0º N 0,00 m/s0,00 m/s2.3 Lux
03:56 AM8,8 ºC93 %959 hPa0,00 l/m2 315º NO 0,10 m/s0,00 m/s2.3 Lux
03:46 AM9,7 ºC94 %959 hPa0,00 l/m2 247,5º OSO 0,00 m/s0,00 m/s2.3 Lux
03:36 AM9,8 ºC91 %959 hPa0,00 l/m2 0º N 0,00 m/s0,00 m/s2.3 Lux
03:26 AM9,1 ºC90 %959 hPa0,00 l/m2 0º N 0,20 m/s0,00 m/s2.3 Lux
03:16 AM9,7 ºC93 %959 hPa0,00 l/m2 112.5º ESE 0,10 m/s0,60 m/s2.3 Lux
03:06 AM10,3 ºC92 %959 hPa0,00 l/m2 270º O 0,00 m/s0,00 m/s2.3 Lux
02:56 AM9,5 ºC92 %959 hPa0,00 l/m2 270º O 0,00 m/s0,00 m/s2.3 Lux
02:46 AM8,6 ºC92 %958 hPa0,00 l/m2 0º N 0,10 m/s0,60 m/s2.3 Lux
02:36 AM9,7 ºC93 %958 hPa0,00 l/m2 0º N 0,00 m/s0,00 m/s2.3 Lux
02:26 AM9,0 ºC92 %958 hPa0,00 l/m2 180º S 0,00 m/s0,00 m/s2.3 Lux
02:16 AM10,0 ºC90 %958 hPa0,00 l/m2 0º N 0,00 m/s0,00 m/s2.3 Lux
02:06 AM9,6 ºC91 %958 hPa0,00 l/m2 0º N 0,00 m/s0,00 m/s2.3 Lux
01:56 AM9,7 ºC91 %958 hPa0,00 l/m2 0º N 0,10 m/s0,00 m/s2.3 Lux
01:46 AM11,0 ºC91 %958 hPa0,00 l/m2 0º N 0,00 m/s0,00 m/s2.3 Lux
01:36 AM11,1 ºC90 %959 hPa0,00 l/m2 0º N 0,00 m/s0,00 m/s2.3 Lux
01:26 AM10,0 ºC88 %959 hPa0,00 l/m2 0º N 0,30 m/s1,20 m/s2.3 Lux
01:16 AM11,3 ºC77 %959 hPa0,00 l/m2 67,5º ENE 1,60 m/s2,40 m/s2.3 Lux
01:06 AM11,1 ºC77 %959 hPa0,00 l/m2 180º S 0,60 m/s1,20 m/s2.3 Lux
12:56 AM10,0 ºC88 %959 hPa0,00 l/m2 0º N 0,20 m/s0,60 m/s2.3 Lux
12:46 AM10,6 ºC85 %959 hPa0,00 l/m2 180º S 1,10 m/s1,80 m/s2.3 Lux
12:36 AM9,9 ºC84 %959 hPa0,00 l/m2 180º S 0,00 m/s0,00 m/s2.3 Lux
12:26 AM9,3 ºC84 %959 hPa0,00 l/m2 0º N 0,00 m/s0,00 m/s2.3 Lux
12:16 AM9,9 ºC88 %959 hPa0,00 l/m2 112.5º ESE 0,00 m/s0,00 m/s2.3 Lux
12:06 AM10,0 ºC88 %959 hPa0,00 l/m2 0º N 0,00 m/s0,00 m/s2.3 Lux
WeatherStation © 2018